Weather History for Cut Bank, MT

Change the Weather History Date:

Monday, September 2, 2013

  Actual Average Record
Temperature  
Mean Temperature 72 °F 59 °F  
Max Temperature 89 °F 73 °F 92 °F (1969)
Min Temperature 54 °F 44 °F 28 °F (1956)
Degree Days  
Heating Degree Days 0 7  
Month to date heating degree days 0 14  
Since 1 July heating degree days 72 208  
Cooling Degree Days 7 1  
Month to date cooling degree days 9 2  
Year to date cooling degree days 204 155  
Growing Degree Days 22 (Base 50)    
Moisture  
Dew Point 40 °F    
Average Humidity 39    
Maximum Humidity 61    
Minimum Humidity 17    
Precipitation  
Precipitation 0.00 in 0.04 in 0.90 in (1941)
Month to date precipitation 0.00 0.08  
Year to date precipitation 10.89 8.74  
Snow  
Snow 0.00 in - - ()
Snow Depth 0.00 in    
Sea Level Pressure  
Sea Level Pressure 29.86 in    
Wind  
Wind Speed 8 mph (NNW)    
Max Wind Speed 28 mph    
Max Gust Speed 38 mph    
Visibility 10 miles    
Events      
T = Trace of Precipitation, MM = Missing Value Source: NWS Daily Summary

Daily Weather History Graph

Daily Weather History Graph

Search for Another Location

Airport:

Trip Planner

Search our weather history database for the weather conditions in past years. The results will help you decide how hot, cold, wet, or windy it might be!

Date:

Astronomy

Sep. 02, 2013 Rise Set
Actual Time 6:48 AM MDT 8:08 PM MDT
Civil Twilight 6:15 AM MDT 8:41 PM MDT
Nautical Twilight 5:36 AM MDT 9:20 PM MDT
Astronomical Twilight 4:54 AM MDT 10:02 PM MDT
Moon 4:00 AM MDT (9/2) 6:29 PM MDT (9/2)
Length of Visible Light 14h 25m
Length of Day
13h 20m
Waning Crescent, 7% of the Moon is Illuminated
Sep 2
Waning Crescent
Sep 5
New
Sep 12
First Quarter
Sep 19
Full
Sep 26
Last Quarter

Hourly Weather History & Observations

Time (MDT) Temp. Dew Point Humidity Pressure Visibility Wind Dir Wind Speed Gust Speed Precip Events Conditions
12:56 AM 68.0 °F 36.0 °F 31% 29.87 in 10.0 mi SE 3.5 mph - N/A   Clear
1:56 AM 57.9 °F 39.9 °F 51% 29.86 in 10.0 mi ENE 5.8 mph - N/A   Clear
2:56 AM 57.9 °F 37.9 °F 47% 29.85 in 10.0 mi NNE 6.9 mph - N/A   Clear
3:56 AM 63.0 °F 37.0 °F 38% 29.85 in 10.0 mi Calm Calm - N/A   Clear
4:56 AM 55.9 °F 39.0 °F 53% 29.85 in 10.0 mi NW 5.8 mph - N/A   Clear
5:56 AM 55.9 °F 39.0 °F 53% 29.86 in 10.0 mi WNW 3.5 mph - N/A   Clear
6:56 AM 55.9 °F 42.1 °F 60% 29.87 in 10.0 mi North 3.5 mph - N/A   Clear
7:56 AM 57.9 °F 43.0 °F 58% 29.87 in 10.0 mi North 5.8 mph - N/A   Clear
8:56 AM 63.0 °F 44.1 °F 50% 29.88 in 10.0 mi North 5.8 mph - N/A   Clear
9:56 AM 68.0 °F 42.1 °F 39% 29.87 in 10.0 mi Calm Calm - N/A   Clear
10:56 AM 73.0 °F 44.1 °F 35% 29.85 in 10.0 mi Calm Calm - N/A   Clear
11:56 AM 78.1 °F 44.1 °F 30% 29.84 in 10.0 mi Calm Calm - N/A   Clear
12:56 PM 82.9 °F 43.0 °F 24% 29.81 in 10.0 mi Calm Calm - N/A   Clear
1:56 PM 86.0 °F 41.0 °F 20% 29.81 in 10.0 mi Variable 5.8 mph - N/A   Clear
2:56 PM 88.0 °F 37.9 °F 17% 29.80 in 10.0 mi SSE 6.9 mph - N/A   Clear
3:56 PM 88.0 °F 37.0 °F 16% 29.80 in 10.0 mi South 6.9 mph - N/A   Clear
4:56 PM 88.0 °F 37.0 °F 16% 29.83 in 10.0 mi WNW 5.8 mph - N/A   Clear
5:56 PM 82.0 °F 36.0 °F 19% 29.86 in 10.0 mi NW 27.6 mph 34.5 mph N/A   Clear
6:56 PM 77.0 °F 41.0 °F 28% 29.89 in 10.0 mi NNW 18.4 mph 27.6 mph N/A   Clear
7:56 PM 73.9 °F 41.0 °F 30% 29.89 in 10.0 mi NNW 15.0 mph - N/A   Clear
8:56 PM 75.0 °F 39.0 °F 27% 29.89 in 10.0 mi NNW 15.0 mph - N/A   Overcast
9:56 PM 71.1 °F 42.1 °F 35% 29.91 in 10.0 mi NW 12.7 mph - N/A   Clear
10:56 PM 70.0 °F 42.1 °F 36% 29.92 in 10.0 mi WNW 10.4 mph - N/A   Partly Cloudy
11:56 PM 68.0 °F 44.1 °F 42% 29.91 in 10.0 mi NW 12.7 mph - N/A   Clear